Flag for Brazil Weather past 2 weeks in Porto Alegre, Rio Grande do Sul, Brazil

Now
61 °F

Sunny.


Feels Like: 61 °F
Forecast: 57 / 72 °F
Wind: 5 mph from East

Location: Porto Alegre Aero-Porto

Current Time: Oct 21, 2014 at 8:40:46 AM

Latest Report: Oct 21, 2014 at 8:00 AM


Visibility: 10 mi

Pressure: 30.18 "Hg

Humidity: 88%

Dew point: 57 °F

Location of Porto AlegreLocation

Historic Weather in Porto Alegre — Graph

°F

Porto Alegre temperature yesterday

Maximum temperature yesterday: 75 °F (at 3:00 PM)
Minimum temperature yesterday: 59 °F (at 6:00 AM)
Average temperature yesterday: 67 °F

Past Weeks' High & Low Weather Summary

 TemperatureHumidityPressure
High86 °F (Oct 8, 2:00 PM)100% (Oct 12, 3:00 AM)30.18 "Hg (Oct 12, 3:00 AM)
Low32 °F (Oct 16, 2:00 PM)28% (Oct 19, 5:00 AM)29.65 "Hg (Oct 19, 4:00 AM)
Average69 °F79%29.95 "Hg
* Reported Oct 6 6:00 AM — Oct 21 7:00 AM, Porto Alegre, Weather by CustomWeather, © 2014

Note: Actual official high and low records may vary slightly from our data, if they occured in-between our weather recording intervals... More about our weather records

Advertising

Porto Alegre weather history for previous 24 hours

 ConditionsComfort  
Time TempWeatherWind HumidityBarometerVisibility
7:00 AM
Oct 21
59 °FScattered clouds.3 mph88%30.18 "HgN/A
6:00 AM57 °FPassing clouds.2 mph94%30.15 "HgN/A
5:00 AM59 °FPassing clouds.2 mph88%30.12 "HgN/A
4:00 AM59 °FPassing clouds.2 mph94%30.12 "HgN/A
3:00 AM59 °FPassing clouds.No wind88%30.15 "HgN/A
2:00 AM59 °FClear.No wind88%30.18 "Hg10 mi
1:00 AM61 °FClear.3 mph83%30.18 "Hg10 mi
12:00 AM63 °FClear.6 mph77%30.18 "Hg10 mi
8:00 PM
Oct 20
66 °FClear.5 mph64%30.12 "Hg10 mi
7:00 PM70 °FSunny.12 mph57%30.12 "Hg10 mi
6:00 PM70 °FSunny.12 mph57%30.09 "Hg10 mi
5:00 PM73 °FPassing clouds.9 mph57%30.07 "HgN/A
4:00 PM73 °FPassing clouds.10 mph57%30.09 "HgN/A
3:00 PM75 °FSunny.10 mph41%30.09 "Hg10 mi
2:00 PM73 °FSunny.8 mph36%30.09 "Hg10 mi
1:00 PM73 °FSunny.8 mph41%30.09 "Hg10 mi
12:00 PM72 °FSunny.7 mph50%30.12 "Hg10 mi
11:00 AM70 °FSunny.6 mph57%30.12 "Hg10 mi
10:00 AM68 °FSunny.5 mph60%30.12 "Hg10 mi
9:00 AM66 °FSunny.6 mph68%30.09 "Hg10 mi
8:00 AM63 °FSunny.3 mph88%30.09 "Hg10 mi
Weather by CustomWeather, © 2014

See weather overviewHow to use our weather pages